Flag for Papua New Guinea Weather past 2 weeks in Port Moresby, Papua New Guinea

Now
77 °F

Scattered clouds.


Feels Like: 78 °F
Forecast: 76 / 87 °F
Wind: 2 mph from North

Location: Moresby

Current Time: Aug 23, 2014 at 8:37:20 AM

Latest Report: Aug 23, 2014 at 8:00 AM


Visibility: N/A

Pressure: 29.86 "Hg

Humidity: 89%

Dew point: 73 °F

Location of Port MoresbyLocation

Historic Weather in Port Moresby — Graph

°F

Port Moresby temperature yesterday

Maximum temperature yesterday: 86 °F (at 2:00 PM)
Minimum temperature yesterday: 75 °F (at 12:00 AM)
Average temperature yesterday: 78 °F

Past Weeks' High & Low Weather Summary

 TemperatureHumidityPressure
High90 °F (Aug 16, 12:00 PM)100% (Aug 14, 11:00 AM)29.92 "Hg (Aug 14, 11:00 AM)
Low36 °F (Aug 14, 11:00 AM)49% (Aug 16, 12:00 PM)29.74 "Hg (Aug 16, 2:00 PM)
Average79 °F82%29.84 "Hg
* Reported Aug 8 5:00 AM — Aug 23 5:00 AM, Port Moresby, Weather by CustomWeather, © 2014

Note: Actual official high and low records may vary slightly from our data, if they occured in-between our weather recording intervals... More about our weather records

Advertising

Port Moresby weather history for previous 24 hours

 ConditionsComfort  
Time TempWeatherWind HumidityBarometerVisibility
5:00 AM
Aug 23
75 °FPassing clouds.1 mph94%29.83 "HgN/A
4:00 AM75 °FPassing clouds.3 mph94%29.80 "HgN/A
3:00 AM75 °FPassing clouds.No wind94%29.80 "HgN/A
2:00 AM77 °FPassing clouds.6 mph89%29.80 "HgN/A
1:00 AM77 °FPassing clouds.10 mph89%29.83 "HgN/A
12:00 AM77 °FPassing clouds.9 mph89%29.83 "HgN/A
11:00 PM
Aug 22
77 °FPassing clouds.12 mph94%29.86 "HgN/A
10:00 PM77 °FPassing clouds.5 mph94%29.86 "HgN/A
9:00 PM77 °FPassing clouds.6 mph89%29.86 "HgN/A
8:00 PM77 °FPartly cloudy.7 mph89%29.83 "HgN/A
7:00 PM77 °FSprinkles. Overcast.2 mph94%29.83 "HgN/A
6:00 PM79 °FBroken clouds.9 mph89%29.80 "HgN/A
5:00 PM81 °FScattered clouds.9 mph84%29.77 "HgN/A
4:00 PM82 °FScattered clouds.9 mph79%29.77 "HgN/A
2:00 PM86 °FScattered clouds.9 mph66%29.80 "HgN/A
1:00 PM84 °FPartly sunny.12 mph74%29.83 "HgN/A
12:00 PM84 °FPartly sunny.2 mph74%29.86 "HgN/A
11:00 AM82 °FPartly sunny.6 mph74%29.89 "HgN/A
10:01 AM81 °FBroken clouds.1 mph79%29.89 "HgN/A
9:00 AM81 °FBroken clouds.No wind79%29.92 "HgN/A
8:00 AM77 °FMostly cloudy.No wind89%29.89 "HgN/A
Weather by CustomWeather, © 2014

See weather overviewHow to use our weather pages